Theta_e
307 307 307 307 307 307 307 305 306 306 306 306 306 306 307 308 307 307 308 307 308 308 308 309 309 310 310 310 311 311 312 313 312 312 313 315 314 314 316 315 314 314 313 312 312 313 312 312 313 312 316 317 314 315 314 316 322 330 333 324 315 315 315 315 322 320 314 316 317 315 312 313 315 314 311 309 312 315 315 314 313 311 309 310 308 307 307 307
307 306 307 308 307 307 306 306 307 307 307 308 308 308 309 309 308 307 308 308 308 308 309 309 310 311 311 313 313 313 313 312 312 312 316 318 315 315 316 314 313 313 312 312 312 312 312 313 311 313 321 318 312 317 319 315 320 333 329 318 319 322 316 316 323 320 315 314 315 316 312 312 313 312 311 312 316 316 314 314 315 316 314 310 306 306 307 306
307 307 307 307 308 307 307 307 307 307 307 308 309 310 310 311 310 310 310 309 309 309 310 310 311 312 313 314 314 314 313 312 313 313 317 318 315 316 316 314 313 313 312 312 312 312 313 314 311 315 324 319 314 321 324 317 319 325 323 320 326 327 319 317 320 318 315 313 315 317 312 312 313 311 311 312 315 315 314 314 315 315 315 311 305 303 305 305
308 307 306 306 308 307 308 308 307 307 307 307 308 309 309 310 311 311 312 311 310 310 311 311 312 314 314 314 315 314 312 314 314 313 316 316 315 316 314 313 313 313 313 312 312 313 313 313 312 317 322 320 319 321 319 317 317 317 320 324 324 319 318 319 320 320 316 313 314 316 313 314 313 310 311 312 313 313 313 314 314 313 311 310 306 302 303 303
308 307 306 306 307 308 308 309 308 308 307 307 308 308 309 309 309 310 312 313 312 312 312 313 313 314 314 314 315 314 314 317 314 311 315 316 315 315 314 313 314 313 313 312 313 313 313 312 314 322 321 318 322 319 315 316 315 316 318 323 322 317 317 319 321 320 316 312 313 316 315 313 311 310 312 312 312 313 312 311 312 310 306 307 307 303 302 302
309 308 307 306 307 308 308 308 308 308 308 308 309 309 310 310 310 310 311 313 313 312 313 313 313 314 313 313 316 315 314 315 312 312 315 315 315 315 314 313 314 314 312 313 313 312 314 314 317 325 322 317 318 314 313 314 313 316 318 318 320 318 317 318 319 317 314 313 315 316 312 310 311 312 311 310 311 312 308 306 307 306 303 303 303 302 302 302
308 307 307 307 307 308 308 308 308 308 309 309 310 311 311 312 312 311 312 313 313 313 313 313 313 313 312 313 316 317 317 315 314 315 317 316 315 314 314 314 314 314 313 313 313 314 317 318 319 321 320 315 314 313 313 313 313 317 319 320 318 316 317 319 317 315 314 314 314 312 309 310 313 312 310 309 310 308 302 300 303 303 302 302 302 302 301 301
309 308 307 307 307 308 308 309 309 309 310 310 310 311 312 312 312 312 312 312 313 313 313 313 313 312 312 313 316 320 320 318 316 316 317 317 315 314 313 314 314 314 313 312 313 315 316 316 316 315 316 314 312 314 312 311 316 318 319 321 317 315 319 318 315 315 314 313 310 309 311 312 311 310 310 309 309 305 300 300 302 302 302 302 301 301 301 301
311 309 307 307 306 307 309 309 310 309 310 311 311 311 312 312 312 312 312 313 313 313 313 314 314 312 312 311 314 319 318 316 316 317 317 317 316 313 313 314 314 314 312 312 313 312 313 315 316 313 314 314 311 313 313 312 316 318 319 320 317 315 316 314 314 315 313 312 309 309 314 313 308 309 309 309 307 303 301 302 302 302 302 301 300 300 300 300
311 309 309 308 307 307 309 310 310 310 310 311 311 312 312 312 313 313 313 313 313 314 315 315 314 313 312 311 313 316 316 318 320 319 319 318 317 315 315 315 314 314 312 311 312 311 312 314 312 310 313 314 310 311 312 312 313 316 318 317 316 313 313 314 314 313 311 311 310 310 315 313 308 311 311 309 306 302 306 307 302 302 301 300 300 299 300 299
311 310 311 310 309 309 310 312 312 311 312 312 312 311 312 313 314 314 314 315 315 316 317 316 315 313 312 311 314 316 315 319 320 319 319 317 317 317 316 315 313 313 312 311 311 311 312 311 308 308 312 312 310 312 312 311 310 313 313 314 317 315 314 315 312 311 311 311 310 311 314 312 309 312 311 308 304 303 311 310 302 302 301 300 300 299 299 299
312 312 311 311 311 310 311 313 313 313 313 313 312 312 313 314 315 315 316 316 317 318 318 317 315 313 312 311 314 315 313 316 318 318 317 316 316 316 315 314 313 312 312 311 312 311 311 310 310 312 313 311 312 313 311 310 310 312 312 314 318 318 317 314 311 311 312 312 311 311 314 317 316 311 308 306 304 307 313 309 303 302 300 300 300 299 299 299
312 312 312 311 311 310 311 312 313 313 314 314 313 313 315 316 316 317 318 318 318 318 318 317 315 312 312 316 315 311 312 314 317 317 316 316 315 314 314 313 313 312 312 313 312 312 311 310 311 313 312 314 316 311 311 312 311 312 312 314 316 318 320 313 309 312 313 311 310 311 316 325 322 309 306 305 304 312 315 306 303 301 300 300 299 299 299 298
311 312 311 311 310 310 311 312 313 313 313 314 315 316 317 317 318 319 319 318 318 318 317 315 315 312 313 318 314 311 313 312 313 315 315 315 314 314 314 313 313 313 313 313 313 312 312 311 310 311 310 314 313 308 315 320 318 315 311 318 319 317 324 319 311 313 313 310 308 312 318 324 319 307 306 304 303 315 316 304 301 300 300 299 298 298 298 298
311 312 312 311 310 310 311 312 314 314 314 316 317 318 318 318 319 319 318 317 317 317 315 313 313 313 316 318 313 313 315 313 314 316 315 314 313 314 314 314 313 313 313 312 313 312 311 311 312 314 312 310 312 314 322 325 326 322 313 323 324 316 325 323 313 314 313 310 309 313 318 321 315 306 306 302 302 315 313 303 301 300 299 299 298 298 297 297
312 313 314 313 312 311 311 313 314 313 315 317 318 319 319 319 319 317 317 315 314 315 314 314 312 313 318 317 313 314 314 314 316 316 316 314 314 315 313 313 312 312 312 311 311 311 310 313 312 312 313 311 317 327 328 324 327 325 316 323 327 318 321 320 314 313 313 311 311 313 316 319 313 305 305 302 303 314 311 303 301 300 299 298 298 297 297 297
315 315 314 314 313 312 312 313 313 313 315 318 319 319 319 319 318 316 315 314 315 315 314 314 312 313 317 314 313 315 313 313 315 317 317 315 315 315 312 311 310 310 311 310 311 312 310 313 311 311 315 314 318 325 326 322 325 326 317 318 324 318 317 319 317 315 312 312 313 313 314 316 314 308 306 303 303 311 309 303 301 299 299 298 297 297 296 296
315 315 314 314 314 313 313 313 313 314 316 318 319 319 318 317 316 315 316 316 315 314 314 314 312 316 319 315 314 314 313 312 314 317 317 316 315 314 313 311 308 309 313 313 312 312 313 315 316 318 318 314 316 319 322 322 325 329 323 320 322 318 315 318 318 314 313 315 315 315 314 316 315 311 307 303 302 307 305 301 300 299 298 298 297 297 296 296
316 316 316 316 314 314 314 313 315 315 316 318 318 318 316 315 315 316 315 315 318 318 319 318 316 321 322 316 313 312 312 312 314 316 315 314 313 312 313 310 311 314 315 315 313 313 316 317 318 319 318 316 316 316 318 321 322 326 325 323 325 321 317 318 317 313 312 313 316 315 315 316 314 313 309 303 302 303 302 300 300 299 298 298 297 297 296 295
317 317 317 317 316 314 314 315 316 317 316 317 317 316 317 320 321 320 317 317 321 321 321 323 320 321 320 315 313 312 313 313 313 314 313 312 311 312 311 309 315 317 317 321 317 311 314 318 319 319 319 318 315 314 315 317 317 318 318 318 320 319 318 318 315 314 312 312 317 316 314 316 314 313 307 302 304 304 302 302 300 299 298 298 297 297 296 296
316 316 317 318 317 315 314 316 317 318 317 317 317 318 322 326 323 322 323 322 318 314 318 321 316 317 316 313 312 312 314 316 312 312 312 311 310 312 313 312 316 318 318 322 317 310 312 317 320 320 319 316 314 314 312 313 313 313 314 315 317 317 316 315 313 314 313 312 318 317 315 315 316 312 305 302 307 306 302 302 301 299 299 297 297 296 296 296
316 315 317 319 318 315 315 317 318 318 317 318 318 317 319 320 318 317 320 324 321 314 316 317 314 317 316 312 312 312 317 321 317 313 311 311 311 313 315 317 319 319 317 318 317 315 316 319 320 318 316 314 314 313 311 312 312 312 314 313 315 316 316 318 315 314 313 311 318 320 316 316 314 307 303 302 305 302 299 301 300 299 299 297 297 296 295 295
317 317 318 320 318 316 316 318 319 318 318 318 318 317 317 317 317 315 317 325 326 319 318 319 319 321 319 315 314 313 318 323 322 317 311 310 312 314 316 317 319 320 317 317 320 321 322 324 320 315 314 314 315 315 313 313 312 313 314 313 316 315 316 321 318 314 313 310 315 318 315 315 313 306 303 301 301 300 299 300 299 298 298 297 296 295 295 295
317 319 320 320 318 317 318 319 319 318 318 318 318 319 319 318 316 315 317 323 326 322 320 318 318 323 323 317 314 316 320 321 323 320 312 311 314 313 315 317 319 320 317 317 320 321 324 322 316 313 314 315 315 315 314 314 315 317 316 314 316 315 316 320 317 315 316 313 312 312 316 321 318 312 308 302 300 301 300 299 299 298 297 297 296 295 294 294
317 319 318 318 318 317 318 318 318 318 319 318 319 320 319 317 314 314 319 324 327 324 318 314 316 321 320 315 314 317 319 321 322 318 310 311 315 314 315 316 318 320 317 315 316 319 321 317 313 315 315 314 315 316 316 317 317 320 320 316 315 317 317 316 315 315 319 321 314 311 320 329 325 319 311 304 303 302 301 300 300 299 298 297 297 296 295 294
318 318 317 317 317 317 317 318 318 319 319 318 320 321 319 317 315 314 320 327 328 324 318 316 318 319 316 314 315 317 321 321 315 311 310 310 312 314 316 314 315 320 318 316 317 319 318 313 312 317 317 315 316 316 317 316 317 320 320 317 314 314 315 315 316 317 322 323 314 309 319 327 328 324 313 305 305 302 301 301 300 299 299 298 297 296 295 295
319 319 318 318 317 317 317 318 319 319 320 321 321 320 318 316 315 313 318 327 327 322 320 318 315 317 315 312 313 319 325 320 311 308 309 310 310 312 317 317 315 316 315 317 321 320 317 314 313 315 317 317 316 317 316 315 320 323 318 316 316 315 316 318 317 319 323 321 316 315 317 319 324 322 310 304 307 304 302 302 301 299 299 298 297 296 296 295
319 318 318 318 316 316 318 319 319 318 320 321 320 319 318 316 315 316 323 330 327 320 320 317 312 312 311 308 312 318 316 313 316 313 306 308 310 311 318 321 319 318 315 319 325 319 314 316 318 316 317 317 317 321 318 314 320 322 313 313 317 315 317 319 318 318 317 315 320 323 316 317 324 321 308 304 308 308 305 303 301 300 299 298 297 296 296 295
318 318 318 317 316 316 318 320 319 319 320 320 319 318 316 314 316 320 327 329 325 318 317 315 310 310 311 310 313 314 308 309 317 313 306 308 309 310 316 318 319 317 314 317 324 319 313 313 316 318 319 319 320 318 313 314 319 314 309 312 314 314 316 317 318 319 315 315 324 325 317 318 326 325 314 309 312 312 308 304 301 301 300 299 298 296 295 295
317 317 317 317 316 316 317 318 318 320 320 319 319 317 315 317 319 325 328 328 324 319 314 313 311 312 314 315 316 314 309 310 312 310 310 311 311 311 311 311 316 318 315 317 321 318 312 308 311 316 318 319 317 310 307 313 314 309 312 317 316 317 318 317 319 318 316 321 324 320 317 317 322 327 320 314 315 314 308 304 302 301 301 299 298 297 296 295
317 317 317 316 316 316 317 317 319 321 320 318 318 315 316 322 324 329 329 324 323 319 314 314 312 313 317 319 320 315 310 311 310 312 314 311 312 314 312 312 316 321 320 319 319 316 312 311 312 314 314 314 315 311 307 309 309 312 320 322 319 321 319 319 322 319 320 328 321 313 313 314 319 326 319 313 313 309 306 305 302 301 301 299 298 297 296 296
317 317 316 316 316 316 317 319 320 322 320 317 317 316 320 326 326 329 326 321 324 322 318 318 313 314 317 317 319 315 311 312 311 314 316 314 314 314 315 319 320 324 324 320 321 319 317 317 315 311 310 313 319 317 311 309 310 315 321 322 324 326 321 322 324 321 323 324 314 310 313 314 318 321 315 313 312 306 304 304 301 300 300 299 298 297 297 297
317 316 316 316 316 316 317 319 320 322 320 316 317 320 325 328 328 328 325 323 325 319 317 319 315 315 317 316 317 314 313 313 311 314 315 313 316 314 314 317 316 323 325 319 320 321 320 318 313 312 312 312 318 320 317 317 314 315 320 323 327 328 327 330 327 321 321 318 310 308 312 315 318 317 313 312 308 302 302 303 302 300 299 298 298 297 297 297
317 317 316 316 316 316 317 319 320 322 319 316 320 323 325 328 329 328 326 324 324 319 317 317 313 313 316 316 317 315 316 315 311 313 313 312 316 316 316 314 311 320 324 318 318 321 324 322 315 315 315 312 313 316 321 323 315 314 319 320 323 327 329 331 330 327 324 318 312 309 313 321 321 313 308 305 302 299 300 301 301 301 299 298 298 297 297 296
318 317 317 316 316 317 317 318 320 321 319 317 321 324 325 327 327 329 329 324 323 321 317 314 313 314 315 315 315 314 317 316 311 313 314 314 318 318 319 316 312 318 322 320 320 317 320 323 316 311 309 310 312 312 315 319 316 314 313 316 321 324 325 322 318 320 320 319 317 313 316 321 316 308 302 301 300 299 300 300 300 300 300 298 298 297 297 296
317 317 317 316 316 317 317 317 319 319 318 319 323 325 325 326 326 329 328 323 323 320 314 315 317 316 316 315 315 313 314 315 313 314 313 314 316 316 318 319 315 315 317 320 322 318 319 321 314 309 308 308 310 310 311 316 319 314 312 319 318 315 322 323 313 309 312 319 320 316 318 317 311 310 304 300 301 300 299 300 299 299 299 298 297 297 296 296
317 316 316 316 316 318 318 318 318 317 318 322 325 325 324 325 324 325 322 319 318 316 316 320 319 318 318 316 316 315 315 316 314 314 314 314 315 315 316 318 315 313 314 318 321 321 324 322 313 311 313 308 304 308 311 311 314 316 317 320 314 310 318 322 318 316 317 322 321 316 319 317 315 318 309 303 305 303 299 299 298 298 299 298 297 297 296 295
316 315 316 316 317 317 318 319 318 316 318 322 325 325 324 324 321 320 318 316 316 316 320 324 320 319 319 317 318 316 316 317 314 314 315 315 316 316 316 317 314 312 313 314 316 318 321 322 315 310 312 310 306 311 314 309 308 315 317 314 313 317 321 318 319 324 322 323 323 318 316 316 317 319 315 311 312 307 301 298 298 299 298 298 297 297 296 295
314 315 316 314 315 317 317 318 317 316 319 323 323 322 323 322 318 317 317 316 318 320 323 324 322 320 318 318 320 317 315 316 314 314 316 315 316 314 313 316 315 312 312 314 317 318 317 320 319 311 309 311 310 314 320 314 308 310 311 310 313 318 321 319 318 321 322 322 323 320 317 317 318 318 319 317 313 307 302 299 299 299 298 298 297 297 296 295
313 316 315 310 312 317 316 316 316 317 320 321 320 319 319 319 316 315 316 317 319 320 321 323 323 322 320 318 318 318 318 316 312 315 318 315 316 314 311 315 316 312 312 314 317 320 316 316 320 315 309 311 315 317 319 317 313 313 314 314 315 314 315 317 315 316 321 322 324 322 318 317 318 313 314 315 309 303 302 301 300 299 298 298 297 297 296 295
312 318 313 307 311 314 314 316 317 318 320 319 318 318 317 316 315 315 316 317 317 316 317 320 321 322 322 319 318 318 321 319 314 317 319 315 316 317 313 314 315 313 312 313 317 321 319 317 321 320 314 317 320 314 310 312 314 316 317 317 317 315 316 319 317 315 316 319 323 322 318 319 317 308 307 310 308 303 301 301 300 299 298 298 297 297 296 295
315 319 311 306 310 312 313 316 314 315 318 317 316 316 315 315 315 315 315 316 316 316 316 317 318 320 319 318 319 319 321 320 317 319 320 317 319 317 312 312 313 313 314 315 316 318 317 319 322 322 318 317 314 307 304 307 310 313 316 317 317 317 319 321 320 317 315 316 317 318 319 317 311 305 306 308 307 304 301 300 300 299 298 298 297 298 297 296
314 313 307 306 309 311 315 316 311 312 315 313 312 313 313 314 315 314 314 315 316 316 316 316 317 318 317 316 317 318 319 319 318 319 319 319 318 312 309 311 312 313 316 317 315 315 315 319 321 320 319 313 308 306 306 305 309 313 314 314 315 316 318 319 319 318 319 318 317 317 319 315 308 304 306 305 304 303 301 300 300 300 300 299 298 299 298 297
310 308 307 307 308 311 315 316 313 311 311 310 311 312 311 312 313 313 314 315 315 314 314 313 314 316 315 315 316 316 318 318 317 316 316 318 316 308 307 310 311 312 315 316 316 315 316 319 319 319 320 316 312 313 312 310 312 315 315 314 316 316 317 316 314 315 317 318 318 317 317 316 310 305 305 303 303 302 300 300 300 301 301 300 299 299 298 297
309 309 308 308 308 310 313 313 312 311 309 310 311 311 311 311 311 312 313 313 313 312 312 312 313 314 313 313 313 312 315 316 315 314 315 316 313 308 307 309 310 312 313 313 315 315 315 318 318 319 321 319 318 319 319 317 316 314 313 314 314 314 315 316 316 316 316 316 316 315 316 316 311 307 308 306 303 304 303 300 300 301 301 300 300 300 299 298
311 311 309 308 308 308 309 309 310 310 308 309 310 309 310 310 309 310 311 311 311 311 311 312 313 312 312 312 313 312 312 314 314 314 314 315 313 309 307 307 309 311 311 312 315 316 318 318 317 320 321 318 319 319 317 317 318 316 315 314 314 313 313 316 318 318 317 316 316 315 315 318 315 311 313 310 308 310 307 301 300 301 300 300 300 299 299 298
311 310 308 309 309 307 307 307 308 308 308 310 311 309 309 310 308 309 309 309 310 310 310 311 312 312 313 312 312 313 312 312 313 314 314 316 314 309 306 306 308 309 309 311 313 315 320 319 316 319 319 316 318 318 314 313 316 318 317 315 314 312 311 314 316 316 317 316 315 314 314 316 315 313 315 315 313 312 309 303 301 301 300 300 299 299 299 298
307 308 306 308 309 308 307 307 306 306 307 309 309 308 309 310 309 310 309 309 310 310 310 311 311 312 313 313 313 314 313 312 313 313 314 316 314 311 309 308 307 308 309 310 311 315 319 319 315 316 316 315 314 314 313 312 313 315 315 315 313 311 311 313 313 314 315 315 314 313 313 313 311 311 315 316 314 314 312 306 302 300 300 300 299 299 300 300
303 304 304 305 307 307 308 308 306 305 307 307 308 308 309 310 310 309 309 308 309 310 311 312 311 311 313 313 313 313 313 314 314 313 314 315 313 313 313 312 308 306 308 310 311 313 317 317 314 313 316 315 311 308 309 311 312 313 313 312 311 310 310 312 312 311 312 313 313 312 311 310 309 311 314 314 312 311 309 304 300 299 300 300 300 301 302 300
302 304 303 304 304 304 307 307 306 306 307 307 308 308 308 309 310 308 308 309 310 309 310 311 311 311 313 313 313 312 312 314 314 313 314 314 312 312 314 315 312 307 307 310 310 309 312 314 311 311 316 314 308 306 308 309 311 313 312 311 309 308 309 309 310 310 309 310 310 309 310 309 307 309 311 310 308 306 304 303 302 300 300 301 302 301 301 299
298 298 300 304 305 304 305 306 306 307 308 307 309 308 307 308 308 307 307 309 310 310 309 309 310 310 311 312 311 311 312 313 313 313 314 314 313 312 313 314 313 311 309 309 309 310 311 311 309 311 315 313 307 307 309 307 307 309 310 309 307 307 308 307 307 308 309 309 309 309 309 308 306 307 307 306 306 305 305 304 302 300 300 300 301 301 300 299
296 296 298 304 307 304 305 306 306 308 309 308 308 307 308 308 307 308 308 308 309 310 309 309 310 309 309 310 310 311 312 313 312 310 309 311 311 311 311 311 312 313 312 308 308 309 309 310 311 311 314 311 304 305 307 307 308 309 309 309 309 307 306 306 306 307 306 308 309 309 309 307 305 304 303 304 305 305 305 304 302 302 301 299 299 299 298 298
Wind_Speed
1 1 1 1 1 1 2 1 1 1 1 1 1 1 1 1 1 1 1 2 2 3 4 5 5 6 7 8 10 12 13 14 13 10 7 3 1 3 4 2 2 2 1 1 1 2 3 5 5 6 4 4 4 3 3 3 2 4 3 3 2 1 1 4 6 5 2 2 4 4 2 1 4 4 3 1 2 3 4 5 4 4 4 4 5 12 16 14
0 1 0 0 1 1 2 2 0 0 0 0 1 1 1 1 1 2 2 2 3 3 4 4 5 6 7 9 10 12 14 15 11 7 7 3 3 6 5 2 3 3 2 2 2 3 3 2 3 6 6 3 3 3 2 2 3 3 3 3 1 4 2 4 6 4 3 2 4 5 1 2 3 2 2 3 5 6 6 6 4 5 6 3 8 14 16 14
1 1 1 1 1 2 2 1 1 1 1 0 0 1 1 2 2 2 2 3 3 3 4 5 5 6 7 8 9 12 14 12 7 4 6 4 6 6 4 3 3 4 2 2 3 3 5 4 3 5 4 3 2 2 3 3 2 1 3 3 3 5 3 4 5 5 4 1 4 5 0 1 4 3 1 1 5 7 3 5 3 4 7 5 8 15 19 19
2 1 2 2 1 1 1 1 2 2 1 1 1 1 1 1 2 2 3 3 4 4 4 5 5 6 7 8 9 10 12 8 3 1 4 4 6 5 4 4 4 3 2 3 5 6 7 7 7 5 4 3 3 3 3 3 1 2 3 3 4 3 1 4 6 6 4 3 3 3 2 4 3 3 1 1 4 7 2 5 4 3 7 6 6 13 19 20
2 2 2 2 2 2 1 1 1 2 2 2 2 2 2 2 2 2 3 3 4 4 5 5 6 6 7 8 7 8 9 6 1 2 2 3 4 4 3 4 3 2 1 4 6 7 6 6 7 6 4 2 4 4 1 2 1 2 1 3 5 4 2 4 5 5 3 3 2 3 4 5 1 2 3 3 2 4 2 3 3 1 4 4 6 10 15 17
2 3 2 2 2 2 2 2 1 2 2 2 2 2 2 2 3 3 3 4 5 5 6 6 6 6 6 6 5 4 5 1 4 3 0 2 3 3 3 3 2 0 2 4 5 5 4 6 7 4 3 3 1 2 1 3 2 1 2 1 3 4 3 3 3 4 4 2 3 3 3 2 3 4 2 4 4 5 3 3 3 6 6 8 10 10 11 12
3 4 3 3 3 3 3 2 2 2 2 2 3 3 3 3 3 4 4 4 5 5 6 6 7 6 5 4 3 4 4 3 5 3 4 2 3 3 3 2 1 1 2 4 5 4 3 6 5 3 4 2 1 2 1 3 3 3 1 2 2 4 5 3 2 3 4 3 6 1 3 3 2 5 2 3 4 4 5 6 9 10 12 14 13 11 10 11
4 4 4 4 4 4 4 3 3 3 3 3 3 3 3 3 3 4 4 4 5 6 6 6 6 4 3 2 1 4 2 4 5 4 5 4 4 5 4 2 2 3 3 3 5 5 4 4 3 4 3 1 3 2 1 2 3 3 3 3 1 3 5 5 3 4 5 6 4 1 4 5 3 2 4 3 5 4 5 7 9 10 14 14 11 10 10 11
5 5 4 5 5 5 4 4 4 4 3 4 3 3 4 4 4 4 4 5 5 5 5 4 4 2 1 2 5 3 3 4 2 3 4 4 5 5 5 3 3 4 4 4 5 7 3 2 3 4 2 2 4 2 1 1 2 3 5 2 2 3 5 4 5 5 4 4 2 2 6 4 1 1 3 4 5 4 5 7 7 9 12 10 8 9 10 11
5 5 4 5 6 5 5 4 4 4 4 4 4 4 4 4 4 5 5 5 5 5 5 3 3 1 2 2 5 1 4 2 1 2 1 3 4 5 5 4 4 4 5 5 5 7 3 4 5 5 5 2 3 2 1 3 1 3 4 3 4 4 5 3 4 3 2 3 4 4 6 4 3 1 2 5 4 3 5 9 7 8 10 7 7 7 9 12
6 5 5 5 6 5 5 4 4 4 4 4 4 4 4 4 4 5 5 5 5 4 4 2 2 1 3 4 5 4 4 2 3 2 1 2 3 4 4 4 4 3 4 5 6 6 2 6 10 7 2 2 3 1 1 3 2 2 1 3 5 6 6 4 3 4 2 1 5 6 4 3 3 3 2 5 5 3 7 8 7 8 7 6 7 7 10 12
7 6 5 6 6 6 4 4 4 3 4 4 5 4 3 4 4 5 5 5 4 3 3 2 1 2 3 2 4 7 5 4 3 2 1 1 2 3 4 4 4 3 4 4 5 5 3 7 11 6 1 4 3 0 2 1 2 1 3 3 7 7 6 5 3 3 2 0 4 4 2 4 3 2 2 5 4 5 9 7 7 7 5 6 6 6 8 11
8 8 6 6 7 5 4 4 3 3 4 4 4 3 3 4 4 4 4 4 4 3 3 2 2 3 3 0 4 7 7 6 5 3 2 1 1 3 4 4 5 4 3 3 4 6 5 8 9 5 2 5 1 1 2 3 3 1 3 2 5 7 5 4 2 3 3 1 1 1 2 5 2 2 4 5 2 6 8 6 6 6 5 5 5 6 7 11
10 9 6 6 7 6 5 3 2 3 4 4 3 2 3 4 3 4 3 3 3 3 2 1 3 4 3 3 4 4 7 8 7 7 4 4 4 6 6 5 5 4 4 5 5 6 6 8 8 6 3 3 1 2 4 5 3 1 2 2 2 2 4 5 2 3 3 1 2 2 1 5 3 1 5 7 2 6 7 5 5 5 5 5 5 6 6 9
8 7 5 5 5 6 5 3 2 4 4 4 2 2 3 2 3 3 2 2 2 1 1 2 4 4 2 4 5 3 5 5 7 7 5 7 8 7 6 7 7 7 7 8 8 8 8 9 7 5 1 2 3 4 3 4 3 2 1 3 2 1 5 8 3 1 1 1 4 4 2 6 3 1 6 7 3 7 7 4 5 5 5 5 5 6 5 7
5 4 5 7 5 5 5 3 4 4 3 3 1 1 1 1 1 1 0 0 1 2 2 3 5 4 1 3 2 2 3 4 5 7 7 9 8 7 9 10 9 9 9 10 11 11 9 7 4 2 2 2 4 4 3 4 4 3 0 3 2 1 3 6 3 2 2 1 4 2 2 5 1 1 6 8 5 7 7 4 5 5 5 5 5 5 5 6
4 5 6 7 5 6 5 4 4 4 2 2 1 0 1 1 1 2 3 5 5 4 4 4 5 3 1 2 2 3 2 4 5 7 10 9 7 9 12 9 7 9 9 8 8 6 5 5 1 0 2 3 3 4 3 2 4 3 1 2 3 2 2 3 3 3 5 3 1 3 0 5 5 2 6 9 6 7 7 5 5 5 5 5 4 5 5 6
5 4 5 6 6 7 5 4 4 2 2 2 0 2 3 4 3 4 5 6 6 5 4 2 4 2 3 2 2 2 2 5 6 8 10 8 8 10 9 6 6 8 7 5 3 3 3 3 2 1 3 2 2 5 2 5 4 3 2 2 3 2 2 3 4 2 4 4 2 4 2 8 10 2 7 7 5 7 6 4 4 4 5 4 4 5 4 5
7 6 6 6 7 6 5 4 2 1 2 1 2 5 6 4 3 3 4 4 3 2 1 3 3 2 3 3 2 3 6 7 7 7 9 10 10 10 8 7 7 7 5 2 1 1 1 3 3 1 1 2 5 7 8 8 6 6 5 4 4 3 3 4 5 4 1 3 3 6 5 8 10 4 5 4 4 6 4 4 4 4 4 4 4 4 4 5
9 9 8 9 8 6 5 5 3 3 3 2 5 7 4 2 2 2 2 2 4 5 3 5 6 3 2 2 2 7 7 6 4 5 9 11 12 11 6 5 6 5 3 4 2 1 2 3 3 5 7 8 9 10 8 4 5 5 3 3 4 4 5 5 4 4 1 0 5 5 4 7 7 4 4 3 3 4 4 4 4 3 3 3 4 4 4 4
11 10 12 12 9 7 7 7 5 5 3 3 6 5 2 3 2 1 2 4 9 9 5 5 5 4 3 2 7 9 5 2 2 3 10 11 11 10 1 2 5 1 1 3 2 2 3 4 7 9 9 7 6 8 5 2 3 2 2 3 3 4 5 6 3 4 2 2 4 2 2 8 5 1 3 2 3 3 2 2 3 3 3 3 3 4 3 2
13 11 13 15 11 9 8 7 6 5 3 5 6 3 3 3 2 1 1 2 8 11 9 5 2 6 5 2 7 7 3 1 1 2 10 9 5 5 1 3 5 4 1 2 2 2 1 4 10 10 5 4 3 4 5 3 3 2 2 2 4 3 3 5 3 4 2 3 3 4 4 7 2 2 2 2 3 2 1 2 2 2 3 2 2 3 3 2
16 15 16 17 13 9 8 8 7 5 6 6 6 5 3 2 2 1 2 0 5 5 6 5 4 6 5 3 7 8 2 4 3 5 11 10 3 3 4 5 5 4 3 4 5 4 3 6 9 7 6 6 2 4 7 3 2 3 3 3 4 2 0 4 3 3 2 1 2 2 4 6 0 2 2 2 2 2 2 2 2 2 2 2 2 2 2 3
19 18 17 17 12 9 9 9 6 5 8 8 10 11 4 2 3 2 0 1 4 4 4 6 5 5 6 5 9 11 4 4 4 5 13 12 4 3 5 5 5 4 4 7 7 6 6 5 2 4 6 7 5 3 6 4 2 3 5 5 4 3 5 6 3 3 3 3 1 1 4 5 1 1 0 1 1 2 2 2 3 2 2 2 2 2 3 3
19 18 17 16 12 10 11 8 6 8 8 7 12 14 8 4 4 3 1 1 3 5 3 4 4 4 7 6 9 11 2 2 3 4 12 13 7 4 2 2 4 5 6 6 5 5 7 4 3 5 4 5 6 4 5 6 3 3 5 9 9 7 8 5 1 3 3 3 2 1 1 4 3 2 2 1 1 2 2 3 3 2 3 2 3 3 3 3
20 19 19 18 13 13 11 5 8 11 8 8 11 10 9 8 5 4 3 3 4 4 1 3 4 6 8 6 6 7 2 3 3 2 8 9 5 5 3 1 1 4 6 5 3 3 3 1 3 5 5 5 5 5 5 7 4 2 4 8 9 8 5 4 3 3 1 2 2 2 3 3 5 3 2 2 2 2 2 2 2 1 2 2 2 2 2 2
21 21 21 19 15 16 11 3 9 12 5 8 11 9 10 10 7 4 3 3 5 3 4 2 1 5 8 3 4 7 2 4 2 3 3 4 3 3 2 4 2 2 4 4 1 2 2 2 3 4 4 5 5 4 5 7 6 3 4 4 6 7 6 6 6 4 2 2 3 2 3 2 4 4 1 2 3 2 1 1 1 1 0 1 1 1 1 1
23 23 21 18 18 20 12 4 11 14 5 5 11 13 12 11 7 2 4 1 4 2 4 1 1 3 3 1 3 5 2 1 4 2 1 3 2 2 1 6 6 4 3 5 4 3 3 3 3 5 4 3 5 5 8 10 5 4 2 5 6 6 6 5 5 3 1 1 3 3 2 2 5 4 1 1 2 2 3 4 4 3 3 2 2 1 0 0
24 24 22 19 19 21 15 7 11 13 9 7 12 15 13 11 6 4 4 3 2 2 2 1 2 2 2 2 3 3 1 2 2 2 2 3 1 3 2 5 6 6 2 2 5 2 1 3 5 7 5 4 4 2 6 9 4 4 5 7 5 5 5 4 4 3 2 1 4 5 3 2 4 4 1 0 3 4 5 4 4 4 4 3 3 2 1 0
25 24 22 20 19 20 19 13 11 11 9 9 13 15 13 8 3 4 2 4 1 1 1 2 2 1 4 6 1 2 2 1 0 1 2 1 3 5 2 2 6 6 1 4 1 2 1 1 2 4 3 5 4 3 1 3 3 5 6 6 6 5 4 3 2 3 3 2 5 5 2 2 3 4 3 3 3 4 6 4 4 5 5 5 4 3 2 1
26 24 23 23 21 22 18 12 14 13 9 12 15 14 10 3 2 4 6 3 1 1 2 2 1 3 7 8 3 2 3 1 0 3 2 1 3 4 2 2 4 4 2 3 2 3 2 1 1 1 2 5 6 5 4 3 3 5 3 4 4 2 3 3 4 3 1 4 5 3 1 2 3 4 2 3 4 3 6 8 9 9 8 6 5 3 3 2
26 24 24 25 24 24 16 9 17 17 10 14 15 9 5 2 1 7 5 1 1 3 4 4 3 5 7 4 2 4 4 1 1 3 4 3 3 3 3 4 4 3 1 4 2 3 2 3 2 0 1 4 6 4 4 4 3 4 3 5 4 2 3 2 3 1 3 5 3 1 1 2 5 5 3 4 3 2 3 5 10 12 10 8 6 5 4 2
27 25 26 27 26 27 20 12 18 20 14 16 12 4 3 4 8 10 7 2 2 3 3 4 2 4 6 4 2 3 3 2 3 2 2 3 4 4 2 2 6 4 1 4 3 0 2 4 1 3 1 2 7 5 2 1 1 4 4 4 3 2 2 2 3 2 3 3 1 2 1 1 4 4 2 4 3 3 3 3 5 9 10 9 7 5 4 3
27 27 27 28 28 29 26 17 18 23 21 15 8 3 4 8 9 7 9 7 1 2 3 4 4 5 5 4 3 4 3 2 4 4 2 3 4 5 4 3 3 4 4 3 3 3 2 3 2 5 1 2 6 5 4 6 4 3 4 4 4 4 3 3 3 2 3 2 2 3 0 3 3 2 2 3 3 3 3 3 4 5 6 6 5 5 4 4
28 29 27 28 29 29 28 22 19 26 25 13 5 5 8 11 6 3 7 7 2 2 3 3 6 5 3 2 2 5 4 2 4 4 3 4 5 5 5 5 6 4 4 4 2 2 2 4 3 1 2 2 4 2 3 6 3 1 2 4 2 4 4 2 2 4 3 2 2 2 2 3 3 1 3 2 2 3 1 2 5 6 5 5 5 5 5 5
30 30 27 27 29 29 30 27 25 29 24 10 5 8 9 8 4 2 3 3 4 6 6 3 3 4 3 2 2 5 2 2 4 4 2 3 3 4 4 5 7 7 6 4 3 2 2 3 3 2 1 2 2 2 2 2 3 2 2 3 4 3 5 3 1 1 3 1 3 2 2 3 1 2 2 2 2 2 1 3 7 8 7 7 7 7 7 7
32 28 22 23 28 31 32 31 30 29 17 7 10 12 7 5 4 3 1 1 3 7 9 4 3 5 5 3 4 6 2 2 4 3 3 3 3 5 5 4 5 11 9 4 2 3 4 1 3 1 1 2 0 2 3 3 3 5 3 5 3 1 4 3 1 2 3 2 4 1 3 2 1 2 2 2 1 2 3 4 6 7 6 8 9 8 8 8
29 20 14 19 29 32 32 33 31 22 7 3 10 11 5 4 3 3 2 1 2 5 6 6 6 5 6 5 4 6 5 4 4 4 4 3 3 5 7 4 4 9 8 4 2 1 4 1 4 1 2 2 3 3 3 4 3 4 3 2 3 3 1 2 2 1 1 3 4 2 2 3 3 3 2 4 7 7 6 5 7 10 11 10 10 10 10 8
21 11 5 13 26 29 32 34 25 12 4 5 10 9 2 2 2 2 2 0 2 3 4 5 3 2 4 5 4 5 7 6 7 5 4 4 3 4 7 4 3 4 3 5 4 1 3 2 2 1 1 1 3 2 3 1 3 3 1 1 2 2 3 2 2 2 2 2 3 3 2 2 4 5 7 10 11 10 9 8 11 14 14 13 12 11 10 8
11 4 1 11 23 28 32 29 14 5 6 6 7 6 1 1 1 1 1 0 1 1 2 2 2 3 3 3 2 4 5 5 8 6 3 4 3 3 4 3 4 3 1 3 4 1 3 2 2 2 3 1 1 2 5 6 3 2 2 1 0 1 2 1 1 2 3 2 2 3 4 4 3 3 6 7 7 10 13 13 13 14 14 13 11 9 8 7
4 2 1 9 22 28 26 17 6 5 5 3 3 2 1 1 2 1 2 2 2 1 1 1 2 3 3 3 2 2 3 4 6 4 2 3 3 2 2 1 4 6 4 4 3 3 2 3 3 1 0 3 4 3 3 5 5 5 5 5 5 3 3 1 2 1 1 2 4 2 6 6 3 2 3 3 4 8 12 12 12 13 14 12 8 6 6 6
4 3 2 10 23 28 19 4 1 4 3 3 3 2 1 1 2 1 1 2 2 0 1 2 1 1 2 2 2 2 3 3 3 2 2 3 3 2 1 3 1 5 5 3 2 2 2 4 3 1 3 4 4 3 1 2 3 4 3 3 4 4 4 5 4 3 1 1 2 3 4 5 1 2 3 4 4 5 8 8 7 7 8 7 5 6 6 6
4 2 4 12 20 20 12 2 1 2 1 3 2 2 2 1 2 3 1 1 2 1 1 1 0 1 1 1 2 2 2 2 2 2 1 1 1 1 3 3 1 2 3 2 1 1 1 3 3 1 2 2 4 3 2 1 2 2 1 2 4 3 3 4 5 3 2 3 2 2 5 5 1 1 3 3 3 3 5 6 5 4 4 5 6 7 7 6
3 2 3 9 11 9 7 5 5 5 3 2 3 2 1 1 2 3 2 2 2 2 2 1 1 1 1 2 3 2 0 1 1 0 1 1 1 3 4 4 1 0 1 1 2 3 2 2 3 2 1 3 3 3 3 3 1 2 2 2 3 4 6 3 3 3 1 4 7 4 8 6 1 2 3 3 2 1 3 4 4 5 5 6 7 7 6 5
3 2 1 3 3 4 4 3 4 6 5 5 4 4 2 1 1 1 3 3 2 2 2 1 0 1 1 2 4 3 1 2 1 0 1 0 2 3 4 5 3 1 1 2 1 2 3 2 3 5 4 4 3 2 2 2 2 2 2 3 4 5 7 4 3 3 4 3 7 6 9 5 1 2 3 3 2 1 3 3 4 5 6 7 7 7 6 6
3 2 1 1 1 1 1 1 3 4 5 5 4 3 4 3 1 2 2 3 1 3 4 1 1 3 3 3 4 4 3 2 3 2 2 2 1 2 2 3 3 1 1 3 4 2 3 1 3 5 6 6 5 6 5 3 4 3 4 5 6 6 6 5 3 4 4 2 4 8 5 3 4 1 2 3 1 3 4 3 5 6 6 8 7 6 6 6
2 2 3 3 0 1 1 1 3 3 4 5 3 3 5 5 2 0 2 1 3 6 4 2 4 3 4 5 4 3 5 5 4 4 3 3 2 1 1 2 2 2 3 2 3 3 3 2 4 6 7 5 4 5 5 4 4 6 6 7 7 6 6 7 6 6 5 3 10 6 6 4 9 5 5 6 4 4 5 5 7 7 6 6 5 4 5 5
1 1 1 0 1 3 2 4 6 5 5 5 3 4 6 7 5 3 3 2 3 6 4 2 5 6 6 7 5 4 5 5 4 4 3 2 3 2 0 1 1 3 3 2 2 2 4 3 3 4 5 2 5 3 4 4 3 4 6 8 7 7 8 10 10 8 7 8 13 4 5 9 9 4 7 8 6 6 7 7 7 5 5 5 4 4 6 6
1 1 1 3 1 3 3 6 9 8 6 6 4 4 6 8 7 3 3 3 2 4 4 2 5 8 7 6 5 4 5 5 4 3 4 3 3 3 2 1 1 1 2 2 2 1 3 2 0 2 3 1 3 2 3 4 2 3 7 10 8 9 11 12 12 9 8 10 12 6 8 14 7 5 7 7 5 5 4 3 4 5 5 5 6 6 7 6
1 1 1 2 2 2 3 6 9 7 5 5 4 3 5 8 8 4 3 5 4 3 4 4 5 7 7 6 6 4 4 6 5 3 4 4 3 2 3 3 2 1 2 2 0 1 1 1 2 3 1 3 1 2 3 3 2 5 13 11 7 8 9 10 9 6 5 9 10 7 12 14 4 6 6 4 3 3 3 4 5 6 6 7 7 7 6 6
3 2 1 2 2 3 3 4 5 5 4 5 5 4 5 7 8 6 2 3 5 5 6 7 7 5 4 6 7 7 6 6 7 7 6 6 4 3 3 3 5 4 1 2 1 0 2 1 2 3 2 4 1 3 3 2 1 8 18 12 8 9 8 8 7 6 8 10 9 8 11 9 3 4 4 3 4 4 5 6 5 5 6 7 7 7 6 6
5 4 2 2 2 3 4 3 4 4 3 4 5 5 5 6 8 8 3 1 4 7 7 9 8 5 3 6 9 9 7 6 5 4 4 3 2 2 2 2 5 5 5 4 2 1 4 3 2 3 3 2 1 2 4 3 1 9 13 8 11 11 7 5 6 9 10 10 7 8 9 4 2 4 3 4 6 6 7 6 5 6 6 7 8 7 7 7
Wind_Direction
104 120 142 161 188 212 247 281 117 148 168 155 130 104 54 18 344 5 9 2 355 345 348 345 349 351 348 350 349 347 345 340 335 342 349 338 278 159 142 106 101 90 65 99 124 117 72 46 36 38 59 49 13 345 14 23 60 55 81 82 43 183 173 175 185 195 179 289 282 324 39 109 302 314 307 307 41 317 308 306 290 306 274 246 322 350 353 351
109 106 126 240 281 298 314 334 3 229 195 121 94 66 23 340 322 340 331 333 332 326 337 337 347 348 347 352 350 351 346 336 338 7 19 19 136 140 145 110 97 107 85 109 115 93 89 47 31 51 53 45 349 341 23 10 51 78 116 73 249 203 202 190 180 194 198 282 285 301 19 157 260 266 337 327 308 326 331 306 336 339 296 331 7 4 11 24
212 146 173 215 270 304 310 307 291 270 271 235 99 52 20 348 336 338 324 319 315 319 332 333 342 346 348 349 354 357 344 340 356 19 22 65 132 132 136 115 105 111 78 99 111 90 109 123 103 73 50 53 357 349 35 12 24 131 115 77 239 213 234 225 196 208 210 236 292 292 258 232 247 211 337 331 288 306 302 282 334 338 306 351 17 15 23 34
230 210 188 195 230 257 273 264 273 276 278 262 256 284 285 329 330 328 329 324 318 318 325 328 337 346 348 349 1 357 347 4 22 319 32 87 133 131 127 110 95 89 60 104 109 101 106 98 80 72 63 49 337 7 50 344 360 135 118 157 212 184 248 227 202 220 216 198 247 281 318 303 250 168 173 145 309 310 268 244 244 288 315 349 9 16 23 29
248 268 212 193 227 245 256 252 265 275 272 272 270 278 285 298 295 304 325 326 319 315 321 326 333 346 348 351 4 360 8 34 262 242 61 104 144 143 125 95 79 59 77 115 115 106 97 75 62 53 54 49 342 22 47 304 87 125 180 177 180 151 246 236 193 216 201 164 240 290 312 297 275 146 178 162 276 278 277 261 224 322 356 34 31 22 25 28
250 273 250 209 229 253 259 254 260 266 272 280 283 294 301 297 294 296 309 321 318 316 324 327 335 346 349 354 1 16 49 43 247 213 173 160 162 169 134 96 86 89 108 122 123 108 80 52 55 55 48 53 11 54 237 300 54 149 282 224 200 178 219 241 175 204 178 131 263 265 294 306 351 316 189 142 231 246 313 357 79 56 58 69 50 36 30 27
252 265 265 232 226 253 267 263 260 265 275 277 288 300 300 307 303 295 305 316 313 318 325 329 335 340 348 3 3 36 71 258 259 226 243 220 202 206 157 139 164 180 152 134 123 113 90 62 71 129 85 48 196 157 135 351 47 114 244 283 224 182 215 235 166 201 185 221 255 265 322 303 326 300 23 76 262 291 10 49 74 66 59 57 50 39 32 30
259 262 267 253 237 245 253 255 259 256 265 269 281 290 292 307 304 295 303 308 311 319 323 326 333 342 358 38 72 23 13 250 262 245 248 237 224 212 186 205 207 204 182 158 144 141 122 87 130 156 89 339 182 149 126 31 38 124 212 261 150 189 243 264 269 253 230 240 248 62 293 270 227 249 27 346 293 355 40 57 58 61 53 48 44 34 29 30
258 255 257 262 248 243 243 241 245 245 253 258 266 271 279 296 300 299 299 306 312 314 322 328 326 339 352 94 91 22 281 235 260 253 245 230 221 210 210 227 223 214 172 162 164 154 156 153 183 179 148 188 162 145 174 180 296 199 188 218 235 271 290 286 266 248 227 238 157 154 279 292 240 136 44 295 297 10 52 53 39 54 54 47 44 35 32 29
256 259 254 263 255 247 246 244 246 251 257 257 267 267 270 290 296 297 299 307 312 312 325 324 312 319 190 128 93 346 254 205 236 242 247 222 211 211 227 239 225 214 168 156 165 152 158 185 164 143 136 132 152 140 139 160 202 183 170 221 247 290 300 261 255 267 234 241 169 195 271 299 293 40 112 274 315 12 61 51 33 53 55 47 48 40 37 34
256 265 259 265 260 247 243 254 257 250 258 266 278 275 276 295 296 299 304 306 310 316 319 309 306 221 164 135 136 223 239 210 237 236 247 208 200 210 214 216 202 203 179 154 172 167 133 165 143 114 129 149 143 90 235 190 108 112 110 293 289 320 302 273 300 307 326 248 175 179 248 299 337 58 153 282 333 39 71 52 31 47 44 34 42 36 36 32
242 254 256 258 259 253 247 262 265 258 271 275 279 286 294 297 294 301 305 303 306 309 300 292 246 182 140 109 193 225 225 201 210 203 224 199 188 200 185 192 181 173 184 151 177 182 128 156 138 102 200 152 135 17 225 196 73 78 42 333 307 345 326 315 353 310 347 99 174 161 275 315 358 100 219 295 340 58 65 51 30 38 31 26 31 31 36 28
229 241 250 249 248 251 252 261 268 275 289 288 286 295 296 295 301 306 304 300 298 297 291 275 209 171 130 289 230 224 224 216 223 231 244 245 197 175 159 170 161 142 161 129 154 169 155 165 139 103 126 116 137 198 110 55 38 305 35 33 313 350 332 312 11 317 342 70 194 135 289 294 287 248 301 325 359 69 56 42 32 29 24 26 23 28 33 25
228 241 253 253 242 243 249 245 259 281 294 297 297 294 297 304 306 303 302 301 296 286 287 200 177 157 130 246 249 238 236 232 238 240 239 225 172 138 132 137 140 129 128 123 136 150 160 161 124 96 104 83 149 137 50 14 16 329 1 40 355 350 287 294 323 325 347 38 1 92 209 269 243 249 338 343 1 92 71 38 36 31 26 27 22 30 27 24
232 246 269 269 246 246 245 207 233 268 291 298 297 305 309 316 310 313 307 300 320 277 190 150 165 140 85 276 260 253 246 232 224 223 214 194 165 134 126 128 125 118 114 111 115 121 133 138 110 96 125 9 78 90 22 349 12 30 322 307 349 149 274 307 322 349 8 11 15 91 186 281 244 155 353 357 35 94 87 47 40 39 33 33 26 31 26 20
229 243 269 270 257 253 235 196 241 259 288 292 285 316 313 323 329 353 315 209 92 114 119 144 156 127 82 271 243 240 239 208 202 203 187 178 171 144 130 126 115 113 112 103 104 108 105 102 83 83 129 62 76 87 44 358 337 357 80 246 270 187 282 320 334 14 29 59 9 41 197 287 261 133 359 12 46 81 85 60 44 42 36 40 33 31 31 20
217 231 256 263 267 262 224 202 243 252 278 276 187 184 166 126 126 118 118 113 110 100 94 132 134 101 259 225 223 265 224 177 182 182 178 174 170 154 135 117 102 107 104 96 103 97 63 57 67 338 57 65 103 98 61 322 285 306 40 218 245 210 211 309 311 355 25 83 25 5 158 267 263 124 25 12 34 70 77 57 43 45 39 40 39 38 34 29
218 240 260 267 273 263 219 203 236 251 277 281 141 160 138 126 127 130 140 128 101 77 68 108 104 57 269 215 198 220 140 153 162 160 166 158 153 156 139 116 111 105 85 63 68 66 24 29 72 77 29 30 124 115 165 232 219 203 174 185 250 244 212 267 274 302 14 32 359 334 298 269 276 351 40 11 29 69 75 64 53 47 41 37 38 42 37 34
231 253 262 267 272 261 215 196 221 249 261 265 126 132 118 103 104 129 156 137 114 118 189 212 150 146 232 239 198 131 116 132 141 149 151 143 145 143 120 107 105 97 93 92 43 68 78 55 69 134 206 208 185 175 203 213 179 176 178 165 197 235 243 240 250 257 330 9 297 271 262 265 277 319 25 2 27 69 74 64 56 43 40 37 35 37 35 41
237 246 251 257 266 265 211 187 198 201 229 216 139 127 113 92 42 325 240 195 214 188 170 202 187 179 237 260 147 131 122 120 128 155 151 149 143 125 95 74 72 66 107 153 166 89 106 130 177 206 212 209 202 202 212 190 140 153 168 175 200 219 259 260 261 283 312 309 267 249 247 262 267 310 351 337 26 61 57 56 55 44 42 33 36 36 31 42
235 236 246 248 254 259 216 190 192 184 224 227 165 141 158 164 121 291 245 252 246 227 228 221 202 243 258 180 160 152 131 83 30 148 157 160 146 136 101 47 98 98 237 160 146 49 95 166 217 226 217 204 196 201 210 175 133 144 187 229 248 216 248 264 257 302 339 186 267 333 306 268 255 350 343 348 55 46 27 64 64 49 50 36 37 37 31 35
233 230 246 244 243 252 219 191 186 177 229 227 185 195 253 208 176 205 170 280 265 237 230 233 241 265 254 182 178 163 108 96 330 207 171 159 148 173 184 84 140 183 211 138 123 55 95 211 235 233 192 117 103 153 168 191 190 185 163 210 259 233 267 286 297 338 11 174 260 352 323 276 256 80 12 32 80 69 26 80 79 73 73 53 43 40 35 40
235 233 240 238 236 243 214 186 176 182 227 223 204 217 257 299 234 172 118 260 291 252 211 206 214 234 229 231 196 169 155 187 195 234 185 158 141 188 146 126 157 145 141 186 177 166 199 243 241 216 149 131 123 117 129 147 193 197 178 192 245 227 230 278 298 336 11 125 255 350 315 283 204 88 43 46 94 93 62 69 76 81 85 66 61 50 36 46
243 240 233 229 229 230 211 187 179 213 232 234 235 224 223 313 220 176 96 277 289 277 224 205 198 200 204 210 185 175 196 202 181 213 184 164 138 149 160 153 141 138 193 203 190 199 227 241 215 136 145 173 192 151 142 166 239 241 208 206 224 203 208 229 281 324 342 10 18 77 320 295 249 193 195 57 65 66 35 52 58 37 49 60 63 52 35 44
240 240 232 231 232 217 206 196 206 223 217 226 241 227 216 243 205 166 70 14 287 288 286 214 196 206 192 158 165 171 169 225 221 209 178 170 149 136 182 155 137 194 200 177 183 232 252 235 129 116 140 167 181 196 185 179 213 289 230 210 215 213 218 224 16 11 3 353 342 75 297 289 316 285 214 174 30 29 16 36 42 19 33 48 53 42 29 40
232 233 228 232 228 201 195 204 212 207 199 223 239 221 203 205 187 162 95 35 279 264 240 195 180 184 175 144 154 145 88 256 242 127 160 174 163 124 146 143 79 206 179 145 171 226 260 267 122 150 161 157 177 226 221 169 146 293 248 208 209 206 199 185 134 107 145 264 329 69 165 257 317 312 229 151 70 35 20 24 9 355 37 57 61 40 23 28
228 228 223 226 218 192 187 198 188 178 177 231 226 205 193 187 181 182 84 12 276 195 135 212 171 158 167 166 157 138 168 243 110 78 134 161 172 89 137 179 125 198 170 127 230 240 180 74 75 136 146 158 184 233 218 160 135 236 250 162 167 178 181 175 155 164 221 254 334 26 130 229 291 286 265 139 115 61 357 289 297 278 66 75 65 34 49 38
224 225 223 223 213 198 189 162 168 171 182 211 194 187 182 175 177 152 85 310 273 112 112 245 50 106 135 90 91 116 192 183 112 215 339 93 156 61 138 201 166 170 167 148 218 265 132 153 179 150 123 169 205 220 189 160 154 238 204 122 135 151 158 147 138 170 247 43 309 301 136 204 266 272 333 119 179 216 218 218 218 215 213 192 187 211 105 33
221 222 221 216 210 204 198 182 170 182 203 185 170 177 169 167 172 78 80 221 254 83 88 117 112 49 56 88 47 51 39 37 115 233 5 86 103 65 152 200 145 140 124 139 208 246 115 212 192 146 135 197 211 244 187 169 184 200 130 99 82 79 90 96 115 134 77 84 245 246 186 197 267 278 304 138 236 229 205 205 210 210 216 211 205 203 187 98
219 218 216 206 202 202 203 211 198 181 191 178 165 165 154 154 144 94 186 226 156 100 90 110 153 85 115 126 10 340 71 31 60 54 33 93 34 37 117 148 98 121 55 14 254 241 322 314 168 139 160 184 149 56 102 151 141 141 113 78 61 47 50 56 71 94 77 272 247 239 215 187 265 274 233 190 232 199 167 171 201 211 216 214 214 207 196 162
216 213 208 199 197 198 198 212 200 173 171 176 159 150 147 109 63 159 212 235 67 131 122 137 194 138 148 149 171 197 110 38 218 109 106 126 58 49 100 118 82 78 14 339 299 301 344 8 243 198 149 128 102 62 34 44 90 112 96 90 92 8 15 28 358 46 123 251 257 262 270 167 217 263 251 223 255 207 166 170 180 191 202 203 204 204 199 190
213 209 204 200 199 200 196 199 187 170 165 171 154 138 142 102 219 212 220 48 148 203 156 168 194 167 174 150 114 160 133 107 182 127 135 142 147 165 160 166 151 86 327 232 240 333 297 228 223 130 166 134 114 84 40 24 45 85 94 100 104 357 7 357 309 277 219 245 259 270 168 186 231 249 233 205 230 254 216 186 179 182 188 190 195 195 189 192
210 206 203 202 200 200 200 191 179 173 169 163 151 97 103 175 221 217 210 197 205 203 130 119 120 136 152 136 137 171 124 141 178 140 133 125 148 201 223 182 158 126 146 191 173 40 293 283 184 140 233 184 150 142 129 158 151 147 148 129 126 109 73 274 269 275 266 257 284 316 89 207 265 268 225 196 214 245 245 240 203 185 182 183 185 183 181 190
210 204 202 203 203 204 202 191 181 179 170 156 146 100 143 211 226 191 193 214 219 63 82 103 96 105 144 168 212 183 133 196 177 130 121 124 141 201 224 225 179 119 101 136 171 172 191 274 200 161 221 193 176 180 153 144 143 173 166 129 140 153 158 221 225 211 255 283 309 308 213 187 211 245 253 236 262 278 250 247 225 187 177 170 166 171 182 195
209 204 202 202 203 207 205 199 194 184 170 151 146 167 190 220 228 155 188 204 167 75 50 85 105 116 182 246 264 203 173 203 171 128 144 161 169 193 190 201 199 154 130 158 198 152 169 255 263 270 284 157 175 216 119 114 122 202 139 111 158 186 151 167 192 173 186 299 294 245 225 223 191 224 289 282 308 327 302 207 184 176 170 157 167 185 192 202
204 201 202 200 201 205 204 204 203 188 172 153 174 196 209 220 200 167 200 172 160 145 114 90 92 122 204 251 245 227 212 142 157 148 179 192 204 203 191 208 196 179 166 158 183 150 131 269 300 346 336 83 146 220 101 115 171 154 129 169 218 186 117 116 219 80 80 259 265 196 226 288 333 266 304 41 13 351 54 179 180 178 172 168 188 198 198 206
195 194 198 199 202 203 201 205 202 189 179 173 194 204 216 214 176 165 201 132 153 140 133 176 192 157 188 202 202 211 195 130 160 165 183 197 221 195 197 243 195 187 194 161 183 192 145 236 311 56 97 27 295 156 61 34 125 121 175 212 200 120 86 103 210 358 46 235 272 215 209 250 159 246 324 29 298 260 206 198 186 180 181 189 201 203 205 205
187 185 195 202 204 203 202 203 195 184 194 228 208 214 208 189 182 131 134 157 129 131 152 199 202 174 182 187 191 189 180 181 174 173 178 194 243 189 175 211 192 191 201 146 124 219 130 167 305 21 126 335 350 97 73 8 59 118 186 196 109 135 135 92 153 218 202 244 290 290 229 226 193 203 220 213 219 209 197 197 189 189 194 200 205 205 207 201
176 173 202 198 198 200 200 199 189 175 215 229 220 229 200 138 181 110 112 143 86 128 174 207 198 162 174 174 166 172 181 181 168 171 178 182 230 199 170 184 179 196 211 143 153 195 109 150 264 295 224 289 14 80 162 225 26 60 87 47 59 144 163 148 151 165 176 228 292 292 272 239 225 204 187 202 206 185 178 191 198 199 198 199 202 200 200 195
162 173 242 175 184 191 190 187 178 176 213 218 227 226 120 77 196 74 26 87 63 123 191 205 168 143 163 168 153 165 172 168 167 177 196 177 185 205 196 179 147 162 52 105 143 143 82 131 209 282 308 214 171 203 188 177 153 106 103 145 227 101 118 162 157 123 135 168 222 283 284 255 240 207 191 212 211 182 181 188 197 204 202 201 202 196 192 190
143 213 215 163 172 174 173 172 174 193 202 215 239 217 132 149 153 58 357 66 90 249 196 139 143 146 146 141 151 166 136 141 168 175 196 188 170 174 200 112 144 157 120 100 146 172 132 135 167 197 282 194 227 258 204 181 169 155 167 190 185 157 126 143 257 254 108 181 179 205 276 266 227 195 209 233 220 195 193 192 195 204 203 201 197 186 187 192
160 199 149 162 164 158 155 167 213 163 174 204 189 145 136 138 121 127 338 62 88 230 70 76 94 122 119 124 137 131 104 121 173 172 184 195 172 140 25 11 118 149 126 128 181 188 145 110 116 174 201 208 261 304 245 203 149 132 170 190 162 152 136 150 216 233 173 243 133 109 276 276 242 202 231 244 236 215 207 202 204 209 201 194 190 184 192 196
159 150 122 161 168 159 150 172 251 152 183 207 149 90 124 137 130 157 167 83 104 78 57 60 7 36 66 92 97 90 84 115 150 160 203 209 137 18 350 350 310 129 103 122 164 156 137 100 107 271 300 325 336 349 356 4 101 126 243 175 154 168 154 159 184 165 171 211 116 92 263 268 326 290 269 264 264 243 217 203 193 189 179 179 192 199 201 191
125 105 119 162 187 195 174 173 197 188 171 147 127 120 121 103 136 150 142 137 127 99 93 76 17 34 47 66 92 113 89 96 130 150 166 174 22 8 2 359 334 111 79 148 177 173 187 136 125 136 341 337 347 8 347 333 259 206 221 191 175 127 104 106 120 104 223 202 143 178 255 255 243 326 337 1 19 301 234 204 182 185 184 186 199 206 200 183
122 84 70 149 212 232 191 165 164 163 154 142 147 153 130 90 344 23 107 119 100 106 120 89 6 127 105 78 104 146 158 94 122 65 80 105 345 5 5 0 358 335 332 335 331 173 177 166 145 152 186 224 216 183 226 242 199 207 188 190 200 149 138 144 122 153 239 189 145 203 252 266 306 358 345 9 71 156 239 204 194 203 196 197 203 202 192 187
138 117 125 134 340 6 95 53 99 134 158 148 140 154 150 144 327 355 110 125 131 149 146 152 167 147 152 140 126 158 191 146 134 135 125 165 271 343 345 8 31 8 343 12 14 66 133 187 193 180 203 218 201 200 207 156 138 190 206 194 198 184 166 144 123 197 205 141 224 231 227 270 273 240 288 291 197 213 236 200 208 221 210 208 208 199 193 197
123 141 154 153 123 108 116 152 126 126 166 163 152 162 155 147 142 154 163 177 179 170 168 185 180 169 166 160 145 168 188 174 158 159 155 159 176 261 316 53 57 346 344 9 1 68 115 240 230 202 225 225 168 184 194 146 161 201 209 210 204 183 167 168 199 212 156 167 256 236 135 232 256 198 205 249 230 226 240 222 223 228 215 208 198 185 190 201
62 112 179 146 150 176 182 164 147 133 151 163 146 145 157 161 158 157 168 175 176 174 173 203 197 188 172 164 160 158 171 176 177 176 163 152 164 168 66 80 52 338 2 19 344 82 132 234 236 192 229 199 103 131 174 158 195 208 205 214 200 168 169 191 215 210 162 207 253 235 151 241 258 182 196 227 210 208 222 218 215 211 196 184 164 175 200 207
76 59 335 356 50 160 145 140 145 144 151 159 153 155 167 170 167 156 142 139 164 194 184 182 196 192 181 167 156 148 166 173 176 182 171 168 175 157 147 184 209 355 51 83 356 56 145 210 211 158 243 249 92 108 155 166 224 259 240 225 195 172 181 197 216 211 193 232 258 274 265 265 257 173 202 222 202 201 209 193 188 187 184 176 176 196 211 208
124 131 144 47 55 119 120 134 147 150 153 162 173 172 161 165 167 158 147 155 157 192 195 174 173 185 188 185 184 191 182 165 170 195 175 171 194 176 181 199 161 78 49 99 55 307 184 182 96 103 273 294 37 100 120 159 192 255 259 243 179 164 190 207 223 207 194 247 260 266 269 271 246 170 203 222 184 171 187 194 195 196 189 185 196 209 211 210
93 54 106 114 112 143 145 144 146 150 166 179 183 168 158 170 166 151 169 194 159 159 177 171 166 176 189 200 209 212 201 187 202 214 187 176 195 191 197 197 149 136 144 133 124 154 173 187 66 90 212 263 237 141 154 107 77 267 266 249 168 164 192 203 213 193 190 228 243 246 258 264 228 169 197 222 202 202 223 218 203 207 201 195 210 222 221 224
91 29 20 99 120 165 159 135 146 165 183 178 174 159 151 167 166 155 161 236 172 167 172 170 171 173 180 206 217 217 210 201 198 196 170 142 128 126 141 156 137 139 160 157 131 121 149 151 108 128 199 259 3 144 150 94 341 270 265 231 180 188 192 179 210 212 202 206 214 232 246 245 151 155 185 231 231 229 241 232 208 216 215 205 216 224 227 232